Погода в Млинях

Хорватия     42°37′31″N   18°11′59″E
темп.,
°C
ветер,
м/с
пор.,
м/с
влажн.,
%
обл.,
%
осадки,
мм/ч
давл.,
гПа
погр.,
м
20 мая, пт
пт2023:00+12св32560 0.0 102723
02:00+11св32520 0.0 102730
05:00+10св33495 0.0 102629
08:00+16св22515 0.0 1027122
11:00+21зюз22412 0.0 1026759
14:00+22зюз22465 0.0 1025859
17:00+21юз225057 0.0 1024601
20:00+16с116965 0.0 102311
21 мая, сб
сб2123:00+14св226370 0.0 102314
02:00+13св22665 0.0 102217
05:00+12св32675 0.0 102021
08:00+18св115841 0.0 1020138
11:00+22юз21495 0.0 1019566
14:00+23юз215314 0.0 1017722
17:00+22юз216162 0.0 1016394
20:00+18св017973 0.0 101612
22 мая, вс
вс2223:00+17св227817 0.0 101612
02:00+16св228022 0.0 101512
05:00+15св22795 0.0 101417
08:00+20св116754 0.0 1014173
11:00+23юз21605 0.0 1013766
14:00+24юз226313 0.1 1012968
17:00+23юз116710 0.9 1012418
20:00+19з00835 1.2 101111
23 мая, пн
пн2323:00+17св118741 0.1 101211
02:00+15ссв219198 0.6 101211
05:00+15св2291100 0.1 101213
08:00+19ююз0180100 0.1 1011206
11:00+21юз21739 0.0 1011656
14:00+22юз227035 0.6 1011889
17:00+21юз2172100 0.4 1010437
20:00+17юв0188100 1.6 101011
24 мая, вт
вт2423:00+16св11895 0.0 101211
02:00+15св228731 0.0 101118
05:00+15св22860 0.0 101119
08:00+20в12715 0.0 1012231
11:00+23ююз22627 0.0 1012664
14:00+24ююз226161 0.0 1012659
17:00+24ююз226046 0.0 1012408
20:00+19св01785 0.0 101211